默认 日期 大小 文件数 浏览量 最新下载 xml
amp-磁力链接相关资源由用户搜索指令自动获取,结果来源于网络,本站不存储任何资料,亦不承担任何责任,请于24小时内删除,搜索到3301个磁力,用时3ms。
    {"EOZ-Goku": {"pakchunk0-WindowsNoEditor_0_P.pak": 44303725, "pakchunk0-WindowsNoEditor_0_P.sig": 94300}, "Prince-Vegeta": {"pakchunk0-WindowsNoEditor_0_P.pak": 115982297, "pakchunk0-WindowsNoEditor_0_P.sig": 94300}}
创建时间: 2022-09-30 20:57:24 大小:153.04 MB 文件数量:4 热度:6 最近下载:2025-01-26 14:55:02
    {"RARBG.com.txt": 34, "btis_bonnie_rachel_vl032713_480p_1000.mp4": 513319408}
创建时间: 2022-10-07 22:29:04 大小:489.54 MB 文件数量:2 热度:6 最近下载:2025-01-03 04:52:10
    {"Rudiakova A. Advanced Design Techniques for RF Power Amp. 2006.pdf": 9984729}
创建时间: 2022-10-07 23:56:59 大小:9.52 MB 文件数量:1 热度:2 最近下载:2025-01-25 00:31:04
    {"7X7T.COM.mp4": 14015808, "AA7X.COM.mp4": 18502443, "t66y.com.url": 46, "1024草榴社区t66y.com.jpg": 155789, "久久热免费在线视频地址.txt": 244, "BadMilfs - Cory Chase & Jane Wilde - Rocking My Stepmoms Rhombus.mp4": 590136709}
创建时间: 2022-10-09 18:53:27 大小:593.96 MB 文件数量:6 热度:8 最近下载:2025-02-13 07:56:01
    {"nylonscreen_g885_clip": {"1.jpg": 92564, "nylonscreen_g885_clip.wmv": 405897496, "nylonscreen_g885_clip.wmv.jpg": 620378}}
创建时间: 2022-10-12 19:40:35 大小:387.77 MB 文件数量:3 热度:3 最近下载:2025-03-02 06:39:02
    ... 24958007, "kupdf.net_framed-ink-drawing-amp-amp-composition-for-visual-storytellers-marcos ... , "kupdf.net_framed-ink-drawing-amp-amp-composition-for-visual-storytellers-marcos ... , "kupdf.net_framed-ink-drawing-amp-amp-composition-for-visual-storytellers-marcos ...
创建时间: 2022-10-16 16:53:44 大小:90.08 MB 文件数量:11 热度:3 最近下载:2025-02-08 18:35:12
    {"RARBG.com.txt": 34, "Sharing girlfriends is fun.mp4": 621030614}
创建时间: 2022-10-16 17:35:39 大小:592.26 MB 文件数量:2 热度:5 最近下载:2025-08-03 18:33:06
    {"Torrent downloaded from Demonoid.me.txt": 46, "Justice League of America 060 (2011) (two covers) (Minutemen-Inviskid&Saxon).cbr": 19542630}
创建时间: 2022-10-16 21:40:57 大小:18.64 MB 文件数量:2 热度:2 最近下载:2025-01-04 17:37:11
    {"data.dat": 6913704, "Readme!.txt": 3218, "THEPIRATEBAY.ORG.url": 115, "Info.Iy3C5R2yjRod9wf.nfo": 476405, "Delphi ( Autocom) 2015.3 Cars & Trucks [Multilanguage][EXE].exe": 789568}
创建时间: 2022-10-17 07:46:44 大小:7.8 MB 文件数量:5 热度:5 最近下载:2025-03-27 05:03:11
    {"Verhoeven C. Structured Electronic Design. Negative-Feedback Amp. 2004.pdf": 10917884}
创建时间: 2022-10-18 09:38:37 大小:10.41 MB 文件数量:1 热度:7 最近下载:2025-02-16 01:43:06
    {"Eschauzier R. Frequency Compensation Techniques...Low-Power...Amp 1995.pdf": 22795707}
创建时间: 2022-10-19 07:57:15 大小:21.74 MB 文件数量:1 热度:3 最近下载:2025-02-16 12:50:01
    {"00000": 2185043, "YOGA.mpg": 1014323240, "KENPO.mpg": 652224848, "CARDIO.mpg": 461636955, "Readme.txt": 819, "STRETCH.mpg": 651141152, "AB_RIPPER.avi": 227184044, "CHEST_BACK.mpg": 790754895, "Intro Info.PDF": 5643115, "Worksheets.PDF": 423253, " ...
创建时间: 2022-10-21 05:21:28 大小:7.64 GB 文件数量:25 热度:3 最近下载:2025-01-10 13:15:03
    {"Fonderie M. Design of Low-Voltage Bipolar Operational Amp 1999.pdf": 64082584}
创建时间: 2022-10-21 20:03:03 大小:61.11 MB 文件数量:1 热度:4 最近下载:2025-02-22 13:38:03
    {"RARBG.com.txt": 34, "Girlfriend fucked like a whore.mp4": 552955980}
创建时间: 2022-10-25 05:26:33 大小:527.34 MB 文件数量:2 热度:6 最近下载:2025-01-26 01:21:06
    ... 效).doc": 45072, "小娟&山谷里的居 ... .COM).ape": 275837422, "小娟&山谷里的居 ...
创建时间: 2022-10-28 17:34:43 大小:263.11 MB 文件数量:6 热度:10 最近下载:2025-08-02 06:05:05
    {"[18OnlyGirls.com] Gloria (Pale & Skinny Teen)": {"Gloria - Cutie In See Through Lengerie.rar": 1087172530}}
创建时间: 2022-10-31 22:54:22 大小:1.01 GB 文件数量:1 热度:14 最近下载:2025-05-04 23:54:02
    ... - Sydney Cole - Sydney Is Dressed & Ready For Her Blackbull.mp4 ...
创建时间: 2022-11-03 21:33:31 大小:282.26 MB 文件数量:6 热度:3 最近下载:2025-02-16 01:38:01
    ... ": 244, "BurningAngel - Arya Fae - Arya & Isiah.mp4": 271324938}
创建时间: 2022-11-03 23:10:42 大小:290.05 MB 文件数量:8 热度:12 最近下载:2025-01-18 05:09:03
    ... .mht": 122449, "Lesbea - Daphne Angel & Sunny Honey.mp4": 258422939, "★★〓 ...
创建时间: 2022-11-05 07:30:24 大小:246.74 MB 文件数量:8 热度:13 最近下载:2025-03-01 09:51:02
    {" ": 496, "Shemale xxx Denni & Ray Bans Hardcore! (12.12.2014) 720p rq.mp4": 779393944}
创建时间: 2022-11-09 07:43:07 大小:743.58 MB 文件数量:5 热度:15 最近下载:2025-02-03 17:10:10